User: anonymous   Login
Location: Unspecified
(0.0000°N, 0.0000°E)
Time: 10:23:56
(UTC+00:00)
Language:

OPTUS 1C - Orbit

View from above orbital plane
View from above orbital plane
View from above satellite
View from above satellite

Ground track
Ground track

The orbit data is extracted from the following two-line orbital elements,

1 27831U 03028B   15247.53360244 -.00000178  00000-0  00000+0 0  9996
2 27831   0.0439 239.0383 0004341 297.5771 154.7942  1.00269835 44821
Epoch (UTC): 04 September 2015 12:48:23
Eccentricity: 0.0004341
inclination: 0.0439°
perigee height: 35768 km
apogee height: 35805 km
right ascension of ascending node: 239.0383°
argument of perigee: 297.5771°
revolutions per day: 1.00269835
mean anomaly at epoch: 154.7942°
orbit number at epoch: 4482

The dashed part of the orbit path shows where the satellite is in the earth's shadow,  

DLR